This demonstration page uses our WeatherBlox Daily Observations layout. Learn more.

Left ArrowRight Arrow

Hourly Observations for January 12, 2015

Temp ( °F °C ) Dew Point ( °F °C ) Humidity (%) Winds ( mph kmh ) Pressure ( in mb ) Visibility ( mi km ) Precip ( " mm )
12:53 am 00:53 Clear 69 20.6 60 15.6 73 73 E 3 6 29.93 1014 9 14 0.00 0.00
1:53 am 01:53 Clear 69 20.6 59 15 70 70 E 3 6 29.92 1013 9 14 0.00 0.00
2:53 am 02:53 Mostly Clear 68 20 59 15 73 73 ENE 5 7 29.92 1013 8 13 0.00 0.00
3:53 am 03:53 Mostly Cloudy 68 20 60 15.6 76 76 ENE 6 9 29.92 1013 8 13 0.00 0.00
4:53 am 04:53 Partly Cloudy 68 20 58 14.4 70 70 ENE 5 7 29.92 1013 8 13 0.00 0.00
5:53 am 05:53 Clear 67 19.4 57 13.9 71 71 SE 5 7 29.93 1014 9 14 0.00 0.00
6:53 am 06:53 Clear 66 18.9 57 13.9 73 73 E 3 6 29.95 1014 9 14 0.00 0.00
7:53 am 07:53 Sunny 70 21.1 57 13.9 64 64 E 3 6 29.96 1015 9 14 0.00 0.00
8:53 am 08:53 Sunny 76 24.4 57 13.9 52 52 SSE 6 9 29.98 1015 10 16 0.00 0.00
9:53 am 09:53 Sunny 77 25 58 14.4 52 52 WSW 6 9 29.98 1015 8 13 0.00 0.00
10:53 am 10:53 Sunny 78 25.6 60 15.6 54 54 WSW 7 11 29.97 1015 9 14 0.00 0.00
11:53 am 11:53 Mostly Sunny 79 26.1 62 16.7 56 56 WSW 9 15 29.96 1014 9 14 0.00 0.00
12:53 pm 12:53 Sunny 80 26.7 62 16.7 54 54 SW 9 15 29.93 1013 8 13 0.00 0.00
1:53 pm 13:53 Sunny 80 26.7 63 17.2 56 56 SW 9 15 29.91 1013 8 13 0.00 0.00
2:53 pm 14:53 Mostly Sunny 78 25.6 64 17.8 62 62 WSW 10 17 29.91 1013 8 13 0.00 0.00
3:53 pm 15:53 Sunny 79 26.1 64 17.8 60 60 WSW 7 11 29.91 1013 8 13 0.00 0.00
4:53 pm 16:53 Sunny 78 25.6 65 18.3 64 64 WSW 5 7 29.93 1013 8 13 0.00 0.00
5:53 pm 17:53 Sunny 76 24.4 64 17.8 67 67 W 3 6 29.93 1014 7 11 0.00 0.00
6:53 pm 18:53 Clear 76 24.4 64 17.8 67 67 NW 3 6 29.96 1014 8 13 0.00 0.00
7:53 pm 19:53 Clear 74 23.3 63 17.2 69 69 N 3 6 29.98 1015 8 13 0.00 0.00
8:53 pm 20:53 Clear 73 22.8 64 17.8 74 74 NNE 3 6 29.98 1015 8 13 0.00 0.00
9:53 pm 21:53 Clear 72 22.2 63 17.2 73 73 NE 6 9 29.98 1015 8 13 0.00 0.00
10:53 pm 22:53 Clear 70 21.1 62 16.7 76 76 ENE 6 9 29.97 1015 8 13 0.00 0.00
11:53 pm 23:53 Clear 70 21.1 61 16.1 73 73 ENE 5 7 29.96 1015 10 16 0.00 0.00

Powered by Vaisala Xweather